TimeCDT,TemperatureF,Dew PointF,Humidity,Sea Level PressureIn,VisibilityMPH,Wind Direction,Wind SpeedMPH,Gust SpeedMPH,PrecipitationIn,Events,Conditions,WindDirDegrees,DateUTC
12:53 AM,63.0,44.1,50,30.15,10.0,ESE,5.8,-,N/A,,Mostly Cloudy,110,2013-05-25 05:53:00
1:53 AM,63.0,45.0,52,30.13,10.0,SE,13.8,18.4,N/A,,Overcast,140,2013-05-25 06:53:00
2:53 AM,64.0,45.0,50,30.12,10.0,SSE,9.2,-,N/A,,Overcast,150,2013-05-25 07:53:00
3:53 AM,64.0,46.0,52,30.13,10.0,SSE,9.2,-,N/A,,Overcast,150,2013-05-25 08:53:00
4:53 AM,63.0,46.9,56,30.10,10.0,SSE,10.4,-,N/A,,Mostly Cloudy,160,2013-05-25 09:53:00
5:53 AM,64.0,50.0,60,30.09,10.0,South,11.5,-,N/A,,Mostly Cloudy,170,2013-05-25 10:53:00
6:53 AM,66.0,54.0,65,30.10,10.0,South,11.5,-,N/A,,Overcast,190,2013-05-25 11:53:00
7:16 AM,66.2,53.6,64,30.11,10.0,South,13.8,-,N/A,,Overcast,190,2013-05-25 12:16:00
7:49 AM,66.2,55.4,68,30.12,10.0,WSW,11.5,-,N/A,,Overcast,240,2013-05-25 12:49:00
7:53 AM,66.0,55.9,70,30.11,10.0,WSW,10.4,-,0.00,Rain,Light Rain,250,2013-05-25 12:53:00
8:53 AM,66.9,57.0,70,30.12,10.0,SSW,8.1,-,0.00,,Overcast,200,2013-05-25 13:53:00
9:46 AM,69.8,57.2,64,30.13,10.0,SSW,11.5,-,N/A,,Mostly Cloudy,200,2013-05-25 14:46:00
9:53 AM,71.1,59.0,66,30.12,10.0,SSW,11.5,-,N/A,,Mostly Cloudy,200,2013-05-25 14:53:00
10:53 AM,73.9,61.0,64,30.10,10.0,SSW,11.5,-,N/A,,Clear,210,2013-05-25 15:53:00
11:53 AM,77.0,61.0,58,30.08,10.0,SSW,12.7,-,N/A,,Clear,210,2013-05-25 16:53:00
12:53 PM,82.0,61.0,49,30.04,10.0,South,19.6,-,N/A,,Clear,190,2013-05-25 17:53:00
1:53 PM,82.9,61.0,47,30.02,10.0,SSW,23.0,27.6,N/A,,Partly Cloudy,200,2013-05-25 18:53:00
2:53 PM,84.0,61.0,46,30.01,10.0,South,21.9,26.5,N/A,,Partly Cloudy,190,2013-05-25 19:53:00
3:53 PM,84.9,60.1,43,29.99,10.0,South,19.6,27.6,N/A,,Partly Cloudy,190,2013-05-25 20:53:00
4:53 PM,86.0,60.1,41,29.99,10.0,SSW,20.7,26.5,N/A,,Clear,200,2013-05-25 21:53:00
5:53 PM,84.9,61.0,44,29.99,10.0,SSW,13.8,23.0,N/A,,Scattered Clouds,210,2013-05-25 22:53:00
6:53 PM,82.0,61.0,49,29.98,10.0,South,18.4,21.9,N/A,,Partly Cloudy,190,2013-05-25 23:53:00
7:53 PM,80.1,61.0,52,29.99,10.0,SSE,8.1,-,N/A,,Mostly Cloudy,160,2013-05-26 00:53:00
8:53 PM,77.0,61.0,58,29.99,10.0,SE,6.9,-,N/A,,Scattered Clouds,130,2013-05-26 01:53:00
9:53 PM,75.9,62.1,62,30.02,10.0,SSE,6.9,-,N/A,,Overcast,150,2013-05-26 02:53:00
10:53 PM,73.0,61.0,66,30.03,10.0,East,6.9,-,N/A,,Mostly Cloudy,100,2013-05-26 03:53:00
11:53 PM,71.1,61.0,70,30.03,10.0,ESE,8.1,-,N/A,,Mostly Cloudy,110,2013-05-26 04:53:00